TDRS 3

Last updated on Thu Dec 18 2025 00:02:41 GMT+0000 (Coordinated Universal Time)

1 19548U 88091B 25351.33153185 -.00000284 00000+0 00000+0 0 9991 2 19548 12.7406 342.2038 0042506 344.4512 190.1082 1.00271709123566
UTC large
Height (km)
Speed (km/s)
/
Latitude / Longitude
Inclination (degrees)
Orbital Period (minutes)
Azimuth
Elevation
Range (km)
Doppler Factor

Next 0 passes for location: London (51.5072 / 0.1276)

Sorry there are no passes over London.